Weather History for Fort Myers Airport, FL

Change the Weather History Date:

Monday, January 28, 2013

  Actual Average Record
Temperature  
Mean Temperature 72 °F -  
Max Temperature 82 °F 73 °F 86 °F (1975)
Min Temperature 61 °F 51 °F 29 °F (1940)
Cooling Degree Days 6    
Growing Degree Days 22 (Base 50)    
Moisture  
Dew Point 58 °F    
Average Humidity 66    
Maximum Humidity 90    
Minimum Humidity 45    
Precipitation  
Precipitation 0.00 in - - ()
Sea Level Pressure  
Sea Level Pressure 30.25 in    
Wind  
Wind Speed 8 mph (East)    
Max Wind Speed 15 mph    
Max Gust Speed 23 mph    
Visibility 10 miles    
Events      
Averages and records for this station are not official NWS values.
T = Trace of Precipitation, MM = Missing Value Source: NWS Daily Summary

Daily Weather History Graph

Daily Weather History Graph

Search for Another Location

Airport:

Trip Planner

Search our weather history database for the weather conditions in past years. The results will help you decide how hot, cold, wet, or windy it might be!

Date:

Astronomy

Jan. 28, 2013 Rise Set
Actual Time 7:13 AM EST 6:06 PM EST
Civil Twilight 6:49 AM EST 6:31 PM EST
Nautical Twilight 6:21 AM EST 6:59 PM EST
Astronomical Twilight 5:53 AM EST 7:26 PM EST
Moon 7:44 PM EST (1/28) 7:51 AM EST (1/28)
Length of Visible Light 11h 41m
Length of Day
10h 53m
Full, 98% of the Moon is Illuminated
Jan 28
Full
Feb 3
Last Quarter
Feb 10
New
Feb 17
First Quarter
Feb 25
Full

Hourly Weather History & Observations

Time (EST) Temp. Heat Index Dew Point Humidity Pressure Visibility Wind Dir Wind Speed Gust Speed Precip Events Conditions
12:53 AM 64.9 °F - 57.0 °F 75% 30.26 in 10.0 mi ENE 6.9 mph - N/A   Clear
1:53 AM 64.0 °F - 57.0 °F 78% 30.25 in 10.0 mi East 5.8 mph - N/A   Clear
2:53 AM 64.0 °F - 57.9 °F 80% 30.25 in 10.0 mi East 6.9 mph - N/A   Clear
3:53 AM 62.1 °F - 57.9 °F 86% 30.25 in 10.0 mi ENE 5.8 mph - N/A   Clear
4:53 AM 62.1 °F - 57.9 °F 86% 30.25 in 10.0 mi ENE 5.8 mph - N/A   Partly Cloudy
5:53 AM 62.1 °F - 57.9 °F 86% 30.25 in 10.0 mi East 6.9 mph - N/A   Clear
6:53 AM 61.0 °F - 57.9 °F 90% 30.27 in 10.0 mi East 6.9 mph - N/A   Clear
7:53 AM 63.0 °F - 59.0 °F 87% 30.28 in 9.0 mi East 6.9 mph - N/A   Clear
8:53 AM 69.1 °F - 61.0 °F 75% 30.30 in 10.0 mi East 9.2 mph - N/A   Clear
9:53 AM 75.0 °F - 61.0 °F 62% 30.31 in 10.0 mi ESE 11.5 mph - N/A   Clear
10:53 AM 78.1 °F - 61.0 °F 56% 30.30 in 10.0 mi ESE 15.0 mph - N/A   Partly Cloudy
11:53 AM 79.0 °F - 59.0 °F 50% 30.29 in 10.0 mi East 15.0 mph 23.0 mph N/A   Clear
12:53 PM 82.0 °F 82.1 °F 59.0 °F 45% 30.26 in 10.0 mi ESE 10.4 mph 18.4 mph N/A   Mostly Cloudy
1:53 PM 82.0 °F 82.4 °F 60.1 °F 47% 30.23 in 10.0 mi East 11.5 mph - N/A   Mostly Cloudy
2:53 PM 80.1 °F 80.7 °F 59.0 °F 48% 30.21 in 10.0 mi East 9.2 mph - N/A   Clear
3:53 PM 81.0 °F 81.1 °F 57.9 °F 45% 30.19 in 10.0 mi SSE 9.2 mph - N/A   Partly Cloudy
4:53 PM 81.0 °F 81.1 °F 57.9 °F 45% 30.20 in 10.0 mi ESE 11.5 mph - N/A   Mostly Cloudy
5:53 PM 78.1 °F - 55.9 °F 46% 30.21 in 10.0 mi ESE 6.9 mph - N/A   Partly Cloudy
6:53 PM 75.0 °F - 55.0 °F 50% 30.23 in 10.0 mi East 6.9 mph - N/A   Clear
7:53 PM 71.1 °F - 55.9 °F 59% 30.24 in 10.0 mi East 8.1 mph - N/A   Clear
8:53 PM 69.1 °F - 57.0 °F 65% 30.25 in 10.0 mi East 8.1 mph - N/A   Clear
9:53 PM 69.1 °F - 57.9 °F 68% 30.25 in 10.0 mi ESE 9.2 mph - N/A   Clear
10:53 PM 68.0 °F - 59.0 °F 73% 30.25 in 10.0 mi East 6.9 mph - N/A   Clear
11:53 PM 64.9 °F - 59.0 °F 81% 30.24 in 10.0 mi ENE 4.6 mph - N/A   Clear